Wind_Speed
4 4 4 4 4 4 4 3 3 3 2 2 2 2 2 2 1 1 2 2 2 3 3 4 4 4 5 5 5 6 6 6 6 6 6 7 7 7 7 8 8 8 7
2 2 3 3 2 2 2 2 2 1 1 1 2 2 2 2 2 2 3 3 3 4 4 5 6 6 6 6 6 6 7 7 7 8 8 8 8 9 9 9 9 9 9
1 1 1 1 1 1 0 0 0 1 2 2 3 3 3 3 3 3 4 4 5 5 6 6 7 8 7 7 7 8 8 8 9 9 9 9 9 9 10 10 10 10 11
1 0 0 1 1 1 1 1 2 2 3 4 4 4 4 4 5 4 5 5 6 7 7 7 7 8 7 8 8 9 9 9 9 10 10 10 11 11 11 11 11 12 12
1 1 1 1 1 2 2 3 3 4 4 5 5 5 5 5 6 6 6 7 7 8 8 8 9 8 9 9 10 10 11 11 11 11 12 12 13 13 12 12 13 13 13
2 2 2 3 3 3 4 4 4 5 6 6 6 7 7 7 7 7 7 8 8 9 9 10 9 9 10 11 12 12 12 13 13 13 13 13 13 13 13 14 14 14 15
3 3 3 4 5 5 5 5 6 7 7 7 7 7 7 7 8 9 9 9 9 10 11 10 10 11 12 12 13 14 14 14 15 15 15 14 14 14 15 15 15 15 14
4 4 4 4 5 6 6 7 7 8 8 8 8 8 9 9 10 11 11 11 12 13 12 12 13 13 13 14 14 15 15 16 15 15 15 15 15 15 15 15 15 15 16
5 5 6 6 6 6 7 7 8 8 9 9 9 10 10 10 11 12 13 13 13 14 14 15 15 15 15 15 16 16 17 16 16 16 16 16 15 16 16 16 16 16 17
6 6 6 6 7 7 7 8 8 9 10 10 10 11 11 12 12 13 13 14 14 15 15 16 16 16 16 16 16 17 17 16 16 16 16 16 16 16 17 17 17 17 18
8 7 7 7 8 8 8 8 9 10 10 11 11 12 12 12 13 13 14 15 16 16 17 17 16 16 16 17 17 17 16 16 17 16 16 17 17 16 17 17 18 18 18
8 8 8 9 9 9 9 10 10 10 11 11 12 13 13 13 14 14 15 16 16 17 16 17 17 16 16 16 16 16 16 17 17 17 17 17 17 17 17 17 17 17 18
9 9 10 10 10 10 10 11 11 11 11 12 13 14 14 14 15 15 16 16 16 16 16 16 17 16 16 16 16 15 15 16 16 16 17 16 16 17 17 18 17 17 18
11 11 11 10 11 11 11 11 11 12 12 13 13 14 15 15 16 16 17 17 17 17 16 17 16 16 16 16 16 16 15 15 15 16 16 16 16 16 17 16 17 18 19
13 13 13 13 12 12 12 12 12 12 13 13 14 15 15 16 16 16 16 16 16 15 15 15 15 15 15 16 16 15 15 14 15 15 16 17 16 17 17 17 18 19 19
15 14 13 14 14 14 13 13 13 13 14 14 15 15 15 15 16 16 16 16 16 15 14 15 15 16 15 15 15 15 15 16 16 17 17 17 17 17 17 18 18 19 20
16 15 15 15 14 14 14 13 13 14 14 14 15 15 15 16 16 16 16 16 16 16 15 15 16 15 15 15 15 15 16 16 16 17 17 17 17 18 18 19 19 20 20
17 17 16 16 16 15 14 14 14 14 15 15 15 15 15 15 15 15 15 15 16 16 15 15 15 16 15 15 15 16 16 17 17 17 17 17 18 18 19 20 20 21 21
18 18 18 17 17 16 16 16 15 15 16 16 15 15 15 15 15 15 15 15 16 16 15 16 16 16 16 16 16 16 16 17 18 18 18 18 19 20 20 21 21 22 23
19 19 20 19 18 17 17 18 17 17 17 16 16 15 15 15 15 15 16 16 16 16 16 16 16 16 16 17 17 17 17 17 18 18 18 18 19 20 21 22 22 23 24
20 21 21 21 21 20 19 19 18 17 17 16 16 16 16 15 15 16 16 16 16 16 16 16 17 17 17 17 18 18 18 18 18 18 19 20 20 21 22 23 24 24 24
21 21 21 22 22 22 20 18 18 17 17 16 16 16 16 16 16 16 17 16 16 16 16 17 17 17 18 18 18 19 19 19 19 20 20 21 22 22 23 24 24 24 25
22 22 22 22 22 21 20 20 19 18 17 17 17 17 16 17 17 17 17 17 17 17 18 18 17 18 18 19 19 19 20 20 21 21 22 22 23 24 24 25 25 25 24
23 23 23 23 22 22 21 21 20 19 19 19 18 18 18 18 18 18 19 19 19 19 19 19 19 19 19 20 20 21 21 22 22 23 23 24 24 24 25 25 25 25 26
24 24 24 24 23 23 22 21 21 21 20 20 20 20 20 19 20 20 20 20 19 19 19 19 20 20 21 21 22 22 22 23 23 23 24 25 25 26 26 26 26 26 25
25 25 25 25 24 24 23 22 22 21 21 21 21 21 21 21 21 21 21 21 20 20 21 21 22 22 22 22 23 23 23 24 24 24 24 25 26 26 26 25 25 24 24
Wind_Direction
98 100 103 108 105 104 102 95 97 87 77 63 40 27 23 7 13 350 335 319 311 301 299 299 292 292 300 303 304 303 295 290 291 294 299 299 299 296 290 287 286 289 290
96 88 98 105 102 103 109 99 98 84 46 15 348 342 347 345 330 317 321 315 308 302 305 305 297 294 293 296 303 303 297 293 291 289 291 292 294 292 292 290 287 284 288
90 73 84 99 95 76 96 68 63 319 312 314 314 315 315 314 319 311 312 312 305 300 302 304 296 293 292 292 296 297 297 291 288 290 290 287 288 290 289 288 289 288 284
76 83 258 295 264 270 275 284 288 295 298 301 302 303 304 305 308 312 312 310 306 302 300 301 301 296 294 291 290 292 296 292 287 288 288 285 285 287 287 287 288 288 286
346 320 301 293 284 281 281 289 290 294 298 301 301 302 301 298 298 300 302 305 306 306 303 304 302 294 290 289 288 286 286 288 291 290 288 284 286 285 286 288 287 287 284
320 301 297 299 295 294 296 289 289 295 293 296 300 300 304 299 294 298 302 304 305 304 303 299 300 299 294 291 289 285 282 284 290 290 289 288 289 290 287 288 288 288 283
320 303 288 288 287 285 287 286 289 292 293 295 301 303 301 298 297 297 299 304 303 302 299 295 293 296 297 296 298 290 286 288 287 287 287 287 289 291 287 285 285 288 285
318 304 297 291 288 285 282 285 289 290 293 295 297 300 300 300 297 296 298 303 301 298 297 294 293 293 296 294 296 294 288 292 289 288 288 287 288 290 288 287 289 289 288
324 307 298 292 290 289 291 291 294 294 294 297 298 298 297 297 298 298 296 297 299 299 296 294 294 294 294 295 293 293 293 291 287 286 288 288 288 289 287 287 288 290 288
325 311 305 300 295 293 294 293 294 295 294 294 295 297 297 296 296 299 299 297 298 299 297 296 297 298 297 295 293 293 293 290 287 287 287 285 285 287 286 286 286 289 289
335 321 309 303 299 296 294 292 295 296 296 296 295 298 299 298 298 299 299 298 297 298 297 296 294 295 296 296 293 292 290 288 288 288 287 286 285 285 285 286 285 286 288
338 331 323 315 308 303 298 295 294 295 296 298 298 299 301 302 302 299 297 298 298 299 300 299 298 297 298 297 296 294 291 290 289 290 290 291 290 286 285 287 288 291 290
337 330 323 321 316 310 303 299 295 292 295 297 298 299 299 301 303 303 300 298 299 301 302 301 299 296 299 301 299 298 296 294 294 295 295 295 293 290 289 289 292 295 295
339 332 327 321 314 310 306 302 303 300 299 300 300 300 299 300 301 304 302 299 299 301 302 302 301 299 301 302 302 302 301 299 298 299 297 297 296 294 293 292 295 295 296
340 335 331 327 321 315 308 306 305 305 304 303 303 303 303 304 305 305 303 303 302 302 304 304 303 301 303 304 305 303 302 300 300 300 301 302 299 296 295 295 297 297 296
339 337 334 331 326 321 314 307 305 304 304 304 304 304 304 304 305 306 306 305 304 303 302 302 301 299 300 302 304 304 302 300 300 300 300 301 299 298 296 297 298 299 298
342 340 337 336 331 325 319 312 309 308 308 307 306 305 306 305 305 305 306 305 305 304 302 302 302 301 302 302 303 304 303 302 301 302 302 302 302 300 299 300 299 299 300
340 339 337 333 331 328 322 315 311 309 310 309 309 308 308 309 309 309 307 306 307 306 304 303 303 303 303 304 305 305 304 306 305 303 303 302 303 304 303 303 302 301 301
336 335 334 330 327 325 322 316 312 310 309 308 308 309 309 309 311 310 310 310 309 307 306 305 305 304 305 304 304 303 303 305 305 305 303 302 303 304 304 304 303 302 302
332 331 330 328 325 321 319 317 315 311 309 309 308 308 309 310 311 311 311 311 311 309 308 306 304 302 303 303 304 303 304 304 305 306 308 307 305 306 305 304 304 304 304
328 328 328 327 324 321 318 316 316 313 310 308 308 308 309 311 311 312 312 311 310 310 309 308 306 304 304 304 304 305 304 304 304 304 305 306 306 306 305 304 304 303 303
323 323 324 324 323 322 319 317 316 313 310 309 308 308 309 309 310 309 310 311 311 310 309 307 307 306 306 305 305 303 302 302 303 303 303 304 304 305 305 305 304 303 303
320 321 321 322 320 320 319 318 314 313 313 312 310 308 307 309 310 310 309 309 308 309 308 307 307 306 306 305 305 304 303 303 303 303 303 303 303 303 304 304 304 304 304
316 318 320 321 319 319 317 314 313 311 308 307 307 308 307 306 306 309 308 308 307 306 306 307 306 305 305 305 305 305 304 303 303 303 304 304 304 303 303 304 304 304 304
313 315 317 319 317 316 314 311 310 307 304 304 304 304 304 304 304 306 306 306 305 304 303 303 304 305 304 304 304 303 303 303 303 304 304 304 304 304 304 305 305 304 304
308 310 312 313 313 313 312 310 313 310 306 305 305 304 303 303 303 304 306 305 304 304 304 303 303 304 304 304 303 303 302 303 303 304 304 304 304 305 305 306 306 305 305
Height
5895 5895 5896 5896 5896 5897 5897 5898 5898 5898 5899 5899 5899 5899 5898 5898 5898 5898 5898 5898 5897 5897 5897 5897 5897 5896 5896 5896 5896 5896 5895 5895 5895 5895 5894 5894 5893 5893 5892 5892 5892 5891 5891
5895 5896 5896 5897 5897 5898 5898 5898 5899 5899 5899 5899 5899 5899 5899 5898 5898 5898 5898 5897 5897 5896 5896 5896 5896 5895 5895 5895 5895 5895 5894 5894 5894 5893 5893 5892 5892 5891 5891 5890 5890 5889 5889
5896 5897 5897 5897 5898 5898 5898 5899 5899 5899 5899 5899 5899 5899 5899 5898 5898 5897 5897 5897 5896 5895 5895 5895 5895 5894 5894 5893 5893 5893 5893 5892 5892 5892 5891 5890 5890 5889 5889 5888 5888 5887 5887
5897 5897 5897 5898 5898 5898 5898 5899 5899 5899 5899 5899 5899 5898 5898 5898 5897 5897 5896 5896 5895 5894 5894 5893 5893 5893 5892 5892 5892 5891 5891 5890 5890 5889 5889 5888 5888 5887 5886 5886 5885 5885 5884
5897 5897 5897 5898 5898 5898 5898 5899 5899 5899 5899 5898 5898 5898 5897 5897 5896 5896 5895 5895 5894 5893 5892 5892 5891 5891 5891 5890 5890 5889 5889 5888 5888 5887 5886 5886 5885 5884 5884 5883 5882 5882 5881
5897 5897 5898 5898 5898 5898 5898 5898 5898 5898 5897 5897 5897 5897 5896 5896 5895 5895 5894 5893 5892 5892 5891 5890 5890 5889 5889 5888 5887 5887 5886 5886 5885 5884 5883 5883 5882 5881 5881 5880 5879 5879 5878
5897 5897 5897 5897 5897 5897 5897 5897 5897 5897 5896 5896 5896 5895 5895 5894 5893 5893 5892 5892 5891 5890 5889 5888 5887 5887 5886 5885 5885 5884 5883 5883 5882 5881 5880 5880 5879 5878 5877 5876 5876 5875 5874
5897 5897 5897 5897 5896 5896 5896 5896 5895 5895 5895 5894 5894 5893 5893 5893 5891 5891 5890 5889 5888 5887 5886 5886 5885 5884 5883 5883 5882 5881 5880 5879 5878 5878 5877 5876 5876 5875 5874 5873 5872 5872 5871
5897 5896 5896 5896 5895 5895 5895 5894 5894 5893 5893 5893 5892 5892 5891 5890 5890 5889 5888 5887 5885 5885 5883 5883 5882 5881 5880 5879 5878 5877 5877 5876 5875 5874 5873 5872 5872 5871 5870 5869 5868 5868 5867
5896 5895 5895 5894 5894 5894 5893 5893 5893 5892 5891 5891 5890 5889 5889 5888 5887 5886 5885 5884 5883 5881 5880 5879 5878 5877 5876 5875 5875 5874 5873 5872 5871 5870 5869 5868 5867 5866 5866 5865 5864 5863 5862
5896 5895 5894 5893 5893 5892 5892 5891 5891 5890 5889 5889 5888 5887 5886 5885 5884 5883 5882 5881 5880 5878 5877 5876 5874 5873 5872 5871 5871 5870 5869 5868 5867 5866 5865 5864 5863 5862 5861 5860 5860 5859 5858
5895 5894 5893 5892 5891 5890 5890 5889 5888 5888 5887 5887 5886 5884 5883 5882 5881 5880 5879 5878 5876 5875 5873 5872 5871 5869 5869 5868 5867 5865 5864 5864 5863 5861 5860 5859 5858 5857 5857 5856 5855 5853 5852
5895 5893 5892 5891 5890 5889 5888 5887 5886 5885 5885 5884 5883 5882 5881 5880 5879 5877 5876 5874 5873 5871 5870 5868 5867 5866 5865 5864 5863 5862 5861 5860 5858 5857 5857 5855 5854 5853 5852 5851 5850 5849 5848
5894 5893 5891 5890 5889 5887 5886 5885 5884 5883 5882 5881 5880 5879 5878 5877 5875 5874 5873 5871 5870 5868 5866 5865 5864 5863 5862 5861 5859 5858 5857 5856 5855 5854 5852 5851 5850 5849 5848 5847 5845 5844 5843
5894 5892 5890 5889 5887 5886 5885 5883 5882 5881 5880 5879 5878 5876 5875 5874 5872 5871 5869 5867 5866 5865 5863 5862 5860 5859 5858 5857 5856 5854 5853 5852 5851 5850 5848 5847 5845 5844 5843 5842 5841 5839 5838
5893 5891 5889 5888 5886 5884 5882 5881 5880 5879 5878 5876 5875 5873 5872 5870 5869 5867 5865 5864 5862 5861 5860 5858 5857 5856 5855 5853 5852 5851 5850 5848 5847 5846 5844 5843 5841 5840 5839 5837 5836 5834 5833
5892 5890 5888 5886 5884 5882 5880 5879 5878 5876 5875 5873 5872 5870 5869 5867 5866 5864 5862 5860 5859 5858 5856 5855 5853 5852 5851 5850 5848 5847 5846 5844 5843 5841 5840 5838 5837 5835 5834 5833 5831 5829 5827
5891 5889 5887 5884 5882 5880 5878 5876 5875 5874 5872 5871 5869 5867 5865 5864 5862 5861 5859 5857 5855 5854 5853 5851 5849 5848 5847 5846 5844 5843 5842 5840 5839 5837 5836 5834 5832 5831 5829 5827 5826 5824 5822
5890 5887 5885 5882 5880 5878 5875 5873 5872 5870 5869 5867 5865 5864 5862 5861 5859 5857 5855 5854 5852 5850 5849 5848 5846 5845 5843 5842 5840 5839 5838 5836 5835 5833 5831 5829 5828 5826 5824 5822 5820 5818 5816
5888 5885 5883 5880 5877 5874 5872 5870 5868 5866 5865 5863 5862 5860 5859 5857 5856 5854 5852 5850 5848 5847 5845 5844 5842 5841 5839 5838 5836 5835 5834 5832 5831 5829 5827 5825 5823 5821 5819 5817 5815 5812 5810
5885 5883 5880 5877 5874 5871 5869 5866 5864 5862 5860 5859 5858 5857 5855 5853 5852 5850 5849 5847 5845 5843 5842 5840 5839 5837 5835 5834 5832 5830 5829 5827 5826 5824 5822 5820 5818 5816 5813 5811 5809 5806 5804
5882 5880 5877 5874 5871 5868 5865 5863 5861 5859 5857 5855 5854 5853 5851 5850 5848 5846 5845 5843 5841 5840 5838 5836 5835 5833 5831 5829 5828 5826 5824 5822 5821 5819 5817 5815 5813 5810 5808 5805 5803 5800 5798
5879 5876 5874 5871 5868 5865 5862 5860 5858 5856 5854 5852 5851 5849 5848 5846 5844 5842 5841 5839 5837 5835 5834 5832 5830 5828 5826 5825 5823 5821 5819 5817 5815 5813 5811 5809 5807 5805 5802 5799 5796 5794 5791
5875 5873 5870 5867 5864 5862 5859 5857 5854 5852 5851 5849 5847 5845 5843 5842 5840 5839 5837 5835 5832 5831 5829 5827 5825 5823 5821 5820 5818 5816 5814 5812 5810 5807 5805 5803 5801 5798 5796 5793 5790 5787 5785
5871 5869 5866 5864 5861 5858 5855 5853 5850 5848 5846 5844 5843 5841 5839 5838 5836 5834 5832 5830 5828 5826 5824 5822 5820 5818 5816 5814 5812 5810 5808 5806 5804 5802 5799 5797 5794 5792 5789 5786 5783 5780 5778
5867 5864 5862 5859 5857 5854 5851 5848 5846 5844 5842 5840 5838 5836 5834 5832 5831 5829 5827 5825 5823 5821 5819 5817 5815 5813 5811 5809 5806 5804 5802 5800 5798 5796 5793 5790 5788 5785 5782 5780 5777 5774 5771